This is the latest recevied weather packets stored in our database for station/object F5LKO-13. If no packets are shown the sender has not sent any weather packets the latest 10 day(s).
| Time | Temp. | Humidity | Pressure | Rain* | Wind** | Luminosity | Snow |
|---|---|---|---|---|---|---|---|
| 1778239088 | 24.44° C | 96% | 1011.9 hPa | 0 mm | - | 40 W/m² | - |
| 1778238782 | 25° C | 97% | 1012 hPa | 0 mm | - | 20 W/m² | - |
| 1778238485 | 25.56° C | 96% | 1012 hPa | 0 mm | - | 18 W/m² | - |
| 1778238170 | 25.56° C | 96% | 1012 hPa | 0 mm | - | 28 W/m² | - |
| 1778237863 | 24.44° C | 96% | 1012.2 hPa | 0 mm | - | 46 W/m² | - |
| 1778237557 | 25° C | 99% | 1012.2 hPa | 0 mm | - | 36 W/m² | - |
| 1778237251 | 23.89° C | 98% | 1012.3 hPa | 0 mm | - | 35 W/m² | - |
| 1778236945 | 25° C | 97% | 1012.3 hPa | 0 mm | - | 32 W/m² | - |
| 1778236647 | 24.44° C | 97% | 1012.3 hPa | 0 mm | - | 29 W/m² | - |
| 1778236332 | 25.56° C | 96% | 1012.3 hPa | 0 mm | - | 32 W/m² | - |
| 1778236026 | 26.11° C | 96% | 1012.4 hPa | 0 mm | - | 63 W/m² | - |
| 1778235720 | 25.56° C | 97% | 1012.5 hPa | 0 mm | - | 68 W/m² | - |
| 1778235414 | 25° C | 98% | 1012.6 hPa | 0 mm | - | 43 W/m² | - |
| 1778235108 | 24.44° C | 98% | 1012.5 hPa | 0 mm | - | 22 W/m² | - |
| 1778234811 | 25° C | 97% | 1012.6 hPa | 0 mm | - | 20 W/m² | - |
| 1778234496 | 25.56° C | 95% | 1012.6 hPa | 0 mm | - | 43 W/m² | - |
| 1778234189 | 25° C | 99% | 1012.6 hPa | 0 mm | - | 35 W/m² | - |
| 1778233883 | 24.44° C | 98% | 1012.6 hPa | 0 mm | - | 44 W/m² | - |
| 1778233577 | 24.44° C | 97% | 1012.6 hPa | 0 mm | - | 28 W/m² | - |
| 1778233271 | 24.44° C | 99% | 1012.6 hPa | 0 mm | - | 28 W/m² | - |
| 1778232974 | 25.56° C | 98% | 1012.6 hPa | 0 mm | - | 32 W/m² | - |
| 1778232659 | 25° C | 97% | 1012.6 hPa | 0 mm | - | 25 W/m² | - |
| 1778232353 | 26.11° C | 96% | 1012.6 hPa | 0 mm | - | 24 W/m² | - |
| 1778232047 | 26.67° C | 97% | 1012.5 hPa | 0 mm | - | 27 W/m² | - |
| 1778231741 | 26.11° C | 97% | 1012.5 hPa | 0 mm | - | 39 W/m² | - |
* Rain latest hour (hover to see other rain measurements)
** Current wind speed in m/s (hover to see current wind gust speed)